Miscellaneous Local Product
Issued by NWS Hastings, NE

Home | Current Version | Previous Version | Text Only | Print | Product List | Glossary Off
Versions: 1 2 3 4 5 6 7 8 9 10 11 12 13 14 15 16 17 18 19 20 21 22 23 24 25 26 27 28 29 30 31 32 33 34 35 36 37 38 39 40 41 42 43 44 45 46 47 48 49 50

000
AXUS43 KGID 151702
MISGRI

GID CWA HOURLY WEATHER ROUNDUP
NATIONAL WEATHER SERVICE HASTINGS NE
1200 PM CDT TUE AUG 15 2017

NOTE: "FAIR" INDICATES FEW OR NO CLOUDS BELOW 12,000 FEET WITH NO
SIGNIFICANT WEATHER AND/OR OBSTRUCTIONS TO VISIBILITY.

...SOUTH CENTRAL NEBRASKA...

CITY           SKY/WX    TMP DP  RH WIND       PRES   REMARKS
GRAND ISLAND   CLOUDY    75  70  84 SE15      29.87F
HASTINGS       PTSUNNY   77  69  76 SE12      29.88S
KEARNEY        MOSUNNY   78  70  76 SE13      29.87F
ORD            CLOUDY    77  63  61 SE14      29.84R
YORK           CLOUDY    72  68  88 SE10      29.89S
AURORA         CLOUDY    73  70  91 E10       29.88F
LEXINGTON      CLOUDY    74  68  80 SE9       29.85F
HOLDREGE       MOSUNNY   80  68  68 S9        29.86S
HEBRON         MOSUNNY   86  71  61 S10       29.87S HX  91

...NEBRASKA PANHANDLE...

CITY           SKY/WX    TMP DP  RH WIND       PRES   REMARKS
CHADRON        PTSUNNY   72  61  68 W7        29.91S
ALLIANCE       CLOUDY    71  62  73 SW8       29.92F
SCOTTSBLUFF    CLOUDY    73  60  63 E6        29.92F
SIDNEY         CLOUDY    73  63  70 NE10      29.94R

...WESTERN AND NORTH CENTRAL NEBRASKA...

CITY           SKY/WX    TMP DP  RH WIND       PRES   REMARKS
VALENTINE      MOSUNNY   74  62  66 SE9       29.87S
AINSWORTH      PTSUNNY   70  64  82 S5        29.88F
ONEILL         CLOUDY    69  65  88 E8        29.87F
BROKEN BOW     CLOUDY    73  66  78 SE9       29.85F
IMPERIAL       PTSUNNY   70  64  81 E10       29.87F
NORTH PLATTE   CLOUDY    69  65  86 SE3       29.86F
MCCOOK         CLOUDY    77  68  73 SE6       29.85F

...EASTERN NEBRASKA...

CITY           SKY/WX    TMP DP  RH WIND       PRES   REMARKS
NORFOLK        CLOUDY    76  67  73 SE16G22   29.84F
SO SIOUX CITY  PTSUNNY   72  67  84 SE8       29.88S
TEKAMAH        CLOUDY    75  68  78 SE13G21   29.87S
COLUMBUS       PTSUNNY   75  69  81 SE15      29.88R
ALBION         MOSUNNY   77  69  76 SE12      29.86S
OMAHA EPPLEY   CLOUDY    72  66  81 SE10      29.90S
OFFUTT AFB     CLOUDY    76  67  73 E10       29.90S
MILLARD        CLOUDY    77  68  73 E12       29.90R
LINCOLN        CLOUDY    75  68  78 E10       29.90S
NEBRASKA CITY  CLOUDY    72  72  99 NE10G16   29.92R
BEATRICE       MOSUNNY   88  72  60 S10       29.87F HX  95
FALLS CITY     MOSUNNY   84  72  67 SE9       29.89F

...NORTHERN KANSAS...

CITY           SKY/WX    TMP DP  RH WIND       PRES   REMARKS
GOODLAND       MOSUNNY   77  62  59 S18       29.87S
HILL CITY      SUNNY     89  66  46 SE14G21   29.84F HX  91
NORTON         MOSUNNY   88  63  42 SE7       29.84S
PHILLIPSBURG   MOSUNNY   90  66  45 S8        29.83F HX  92
SMITH CENTER   PTSUNNY   84  68  58 S14       29.85F
HAYS           SUNNY     88  67  49 S15G21    29.85F HX  91
RUSSELL        SUNNY     90  65  43 S13G25    29.84F HX  92
CONCORDIA      SUNNY     87  71  58 S15       29.86F HX  93
SALINA         MOSUNNY   90  68  48 S14G23    29.86S HX  94
TOPEKA         PTSUNNY   83  73  72 S7        29.90S



USA.gov is the U.S. government's official web portal to all federal, state and local government web resources and services.